[[{"header":{"parameterUnit":"m.s-1","parameterCategory":1,"la1":30.2991,"la2":30.254,"lo1":-89.0895,"lo2":-89.0444,"dy":0.0017,"dx":0.0017,"nx":28,"ny":28,"refTime":"2025-08-22T03:00:00:Z","depth":0,"parameterNumber":2,"parameterNumberName":"U-component_of_WINDS"},"data":[0,0,0,0,0,0,0,0,0,0,0,0,0,0,0,0,0,0,0,0,0,0,0,0,0,0,0,0,0,0,0,0,0,0,0,0,0,0,0,0,0,0,0,0,0,0,0,0,0,0,0,0,0,0,0,0,0,0,-0.6384,-0.6384,0,-0.64,-0.64,-0.64,-0.6396,-0.6395,-0.6395,-0.6395,-0.6412,-0.6413,-0.6414,0,0,0,0,0,0,0,0,0,0,0,0,0,-0.6352,-0.6352,-0.6384,-0.6385,-0.6385,-0.64,-0.64,-0.64,-0.6396,-0.6395,-0.6395,-0.6394,-0.6412,-0.6413,-0.6414,0,0,0,0,0,0,0,0,0,0,0,0,0,-0.6367,-0.6353,-0.6384,-0.6384,-0.6384,-0.64,-0.64,-0.6401,-0.6396,-0.6395,-0.6395,-0.6394,-0.6412,-0.6413,-0.6414,-0.6431,0,0,-0.6418,-0.6418,0,0,0,0,0,0,0,0,-0.6366,-0.6368,-0.6384,-0.6384,-0.6384,-0.6395,-0.6395,-0.6411,-0.6396,-0.6391,-0.6395,-0.6394,-0.6407,-0.6409,-0.6413,-0.6432,-0.6433,-0.6418,-0.6418,-0.6419,-0.6419,0,0,0,0,0,0,0,-0.6365,-0.6367,-0.6391,-0.6384,-0.6384,-0.6384,-0.6385,-0.6398,-0.6402,-0.6392,-0.6391,-0.6393,-0.6407,-0.6412,-0.6413,-0.6433,-0.6418,-0.6419,-0.6419,-0.642,-0.6469,-0.6469,0,0,0,0,0,0,-0.6363,-0.6366,-0.639,-0.6391,-0.6374,-0.6385,-0.6387,-0.6392,-0.6402,-0.6403,-0.6394,-0.6393,-0.641,-0.6412,-0.6414,-0.6435,-0.6419,-0.642,-0.6421,-0.6468,-0.6469,-0.6469,0,0,0,0,0,0,-0.6363,-0.6366,-0.6389,-0.6379,-0.6382,-0.6386,-0.6392,-0.6393,-0.6397,-0.6403,-0.6404,-0.6397,-0.641,-0.6412,-0.6427,-0.6436,-0.6421,-0.6422,-0.6467,-0.6468,-0.6469,-0.6478,0,0,0,0,0,0,-0.6362,-0.6365,-0.6372,-0.6379,-0.6382,-0.6402,-0.6393,-0.6394,-0.6399,-0.6398,-0.6407,-0.6408,-0.6409,-0.6425,-0.6428,-0.6437,-0.6423,-0.6467,-0.6468,-0.6469,-0.6477,-0.6479,-0.6481,0,0,0,0,0,-0.6361,-0.6374,-0.6372,-0.6375,-0.639,-0.6402,-0.6404,-0.6405,-0.64,-0.6406,-0.641,-0.6408,-0.6434,-0.6427,-0.643,-0.6439,-0.6466,-0.6467,-0.6469,-0.6476,-0.6479,-0.6481,0,0,0,0,0,0,-0.6368,-0.6375,-0.6373,-0.6388,-0.6395,-0.6402,-0.641,-0.6408,-0.6417,-0.6416,-0.6417,-0.6419,-0.6434,-0.6438,-0.643,-0.6457,-0.645,-0.6452,-0.6454,-0.6456,-0.6458,-0.6457,-0.6424,0,0,0,0,0,-0.6371,-0.638,-0.6386,-0.6399,-0.6402,-0.6406,-0.6411,-0.6411,-0.6418,-0.6421,-0.6426,-0.6434,-0.6444,-0.645,-0.646,-0.6478,-0.648,-0.6486,-0.6488,-0.6489,-0.6491,-0.6501,-0.6504,-0.6474,-0.6474,-0.6474,0,0,-0.6378,-0.6383,-0.6389,-0.64,-0.6406,-0.6416,-0.6408,-0.6419,-0.6426,-0.6423,-0.6437,-0.6441,-0.645,-0.6466,-0.6474,-0.647,-0.65,-0.6491,-0.6492,-0.6493,-0.6503,-0.6506,-0.6508,-0.6475,-0.6475,-0.6474,0,0,-0.6396,-0.64,-0.6412,-0.6417,-0.6425,-0.6427,-0.643,-0.6437,-0.6439,-0.6454,-0.6452,-0.6461,-0.6478,-0.6485,-0.649,-0.6511,-0.6509,-0.6514,-0.6524,-0.6534,-0.6537,-0.6539,-0.6547,-0.6549,-0.6516,-0.6516,-0.6516,0,-0.6404,-0.6418,-0.6418,-0.6429,-0.6435,-0.6432,-0.6444,-0.6449,-0.646,-0.6464,-0.646,-0.6482,-0.6487,-0.6506,-0.6511,-0.6515,-0.6519,-0.6513,-0.6536,-0.6538,-0.654,-0.6548,-0.6551,-0.6516,-0.6516,-0.6516,-0.6516,0,-0.6428,-0.6438,-0.6446,-0.6456,-0.6463,-0.6474,-0.6477,-0.6484,-0.6484,-0.6486,-0.6502,-0.6508,-0.6519,-0.6524,-0.6523,-0.6542,-0.654,-0.6536,-0.6528,-0.6544,-0.6551,-0.6554,-0.6517,-0.6517,-0.6517,-0.6517,0,0,-0.645,-0.646,-0.6463,-0.6468,-0.6477,-0.6485,-0.6497,-0.6507,-0.6513,-0.6521,-0.6531,-0.6546,-0.6542,-0.6549,-0.6549,-0.6558,-0.6575,-0.6553,-0.6554,-0.6557,-0.6596,-0.6599,-0.6603,-0.6574,-0.6574,-0.6575,-0.6596,0,-0.6469,-0.6489,-0.649,-0.6509,-0.6518,-0.6516,-0.6526,-0.6533,-0.6536,-0.6545,-0.6549,-0.656,-0.6554,-0.6558,-0.6567,-0.6571,-0.6583,-0.6569,-0.6584,-0.6584,-0.6582,-0.6606,-0.6609,-0.6629,-0.6599,-0.6599,-0.6599,0,-0.6494,-0.6502,-0.6521,-0.6529,-0.6533,-0.6542,-0.6552,-0.656,-0.6568,-0.657,-0.6577,-0.6577,-0.659,-0.6582,-0.66,-0.6591,-0.6597,-0.66,-0.6601,-0.6602,-0.6593,-0.6609,-0.6635,-0.6638,-0.6604,-0.6603,-0.6603,0,-0.6509,-0.6524,-0.6538,-0.6542,-0.6551,-0.6558,-0.6562,-0.6569,-0.6576,-0.6585,-0.6589,-0.6599,-0.6605,-0.6614,-0.6616,-0.661,-0.6635,-0.6627,-0.6637,-0.6637,-0.6642,-0.6642,-0.6671,-0.6646,-0.6646,-0.6646,-0.6646,0,-0.653,-0.6542,-0.6545,-0.6554,-0.6567,-0.6568,-0.6582,-0.6586,-0.6593,-0.6603,-0.6601,-0.6611,-0.6613,-0.6624,-0.6626,-0.6641,-0.6644,-0.6646,-0.6646,-0.6646,-0.6646,-0.665,-0.6649,-0.6647,-0.6647,-0.6646,-0.6646,0,-0.6549,-0.6551,-0.6566,-0.6574,-0.6576,-0.6586,-0.6592,-0.6601,-0.6604,-0.6616,-0.6619,-0.6624,-0.6636,-0.664,-0.6654,-0.6656,-0.6673,-0.6672,-0.667,-0.6671,-0.6681,-0.668,-0.6713,-0.6718,-0.669,-0.669,-0.6691,0,-0.6562,-0.6571,-0.658,-0.6586,-0.659,-0.66,-0.6607,-0.6608,-0.6615,-0.6625,-0.6633,-0.6644,-0.6654,-0.6673,-0.6678,-0.6689,-0.6689,-0.67,-0.6691,-0.669,-0.669,-0.6689,-0.669,-0.6702,-0.6702,-0.6702,-0.6702,0,-0.6586,-0.6587,-0.6596,-0.6605,-0.6613,-0.6621,-0.6628,-0.6634,-0.6637,-0.6645,-0.6656,-0.6664,-0.6678,-0.669,-0.6701,-0.6706,-0.6705,-0.6705,-0.6708,-0.6708,-0.6707,-0.6708,-0.6675,-0.6705,-0.6704,-0.6704,-0.6704,-0.6704,-0.6603,-0.6611,-0.6618,-0.6629,-0.6634,-0.6641,-0.665,-0.6654,-0.6664,-0.6675,-0.6676,-0.6689,-0.6697,-0.6712,-0.6718,-0.6729,-0.6725,-0.673,-0.6731,-0.6732,-0.6733,-0.6705,-0.6731,-0.6731,-0.6731,-0.6731,-0.673,0,-0.6627,-0.6631,-0.6641,-0.6651,-0.6659,-0.6657,-0.6665,-0.6673,-0.6684,-0.6691,-0.67,-0.6714,-0.6726,-0.6732,-0.6744,-0.6751,-0.6751,-0.6754,-0.6754,-0.6755,-0.6735,-0.6731,-0.6754,-0.6754,-0.6754,-0.6754,-0.6754,-0.6754,-0.664,-0.6654,-0.6656,-0.6673,-0.6678,-0.669,-0.6695,-0.6702,-0.6708,-0.6723,-0.6733,-0.6736,-0.6744,-0.6756,-0.6767,-0.6768,-0.6773,-0.6776,-0.6778,-0.6759,-0.6757,-0.6754,-0.6751,-0.6777,-0.6777,-0.6797,-0.6797,-0.6797]},{"header":{"parameterUnit":"m.s-1","parameterCategory":1,"la1":30.2991,"la2":30.254,"lo1":-89.0895,"lo2":-89.0444,"dy":0.0017,"dx":0.0017,"nx":28,"ny":28,"refTime":"2025-08-22T03:00:00:Z","depth":0,"parameterNumber":3,"parameterNumberName":"V-component_of_WINDS"},"data":[0,0,0,0,0,0,0,0,0,0,0,0,0,0,0,0,0,0,0,0,0,0,0,0,0,0,0,0,0,0,0,0,0,0,0,0,0,0,0,0,0,0,0,0,0,0,0,0,0,0,0,0,0,0,0,0,0,0,0.9281,0.9281,0,0.9296,0.9296,0.9296,0.929,0.9289,0.9289,0.9289,0.9302,0.9303,0.9304,0,0,0,0,0,0,0,0,0,0,0,0,0,0.9247,0.9248,0.9281,0.9281,0.9282,0.9295,0.9296,0.9296,0.929,0.9289,0.9289,0.9289,0.9302,0.9303,0.9304,0,0,0,0,0,0,0,0,0,0,0,0,0,0.9262,0.9248,0.9281,0.928,0.928,0.9295,0.9296,0.9296,0.929,0.9289,0.9289,0.9288,0.9302,0.9303,0.9304,0.932,0,0,0.9307,0.9307,0,0,0,0,0,0,0,0,0.9261,0.9263,0.928,0.928,0.928,0.929,0.9289,0.9304,0.929,0.9286,0.9289,0.9288,0.9299,0.93,0.9304,0.9321,0.9322,0.9307,0.9308,0.9308,0.9308,0,0,0,0,0,0,0,0.926,0.9262,0.9287,0.928,0.9281,0.9279,0.928,0.9292,0.9295,0.9286,0.9286,0.9288,0.9299,0.9303,0.9304,0.9322,0.9307,0.9308,0.9309,0.9309,0.9352,0.9353,0,0,0,0,0,0,0.9259,0.9262,0.9286,0.9287,0.9269,0.928,0.9281,0.9288,0.9295,0.9296,0.9288,0.9288,0.9301,0.9303,0.9304,0.9323,0.9308,0.9309,0.931,0.9352,0.9352,0.9353,0,0,0,0,0,0,0.9259,0.9262,0.9286,0.9274,0.9277,0.9281,0.9288,0.9288,0.9292,0.9296,0.9297,0.9292,0.9301,0.9303,0.9316,0.9324,0.9309,0.931,0.9351,0.9352,0.9353,0.9362,0,0,0,0,0,0,0.9258,0.9261,0.9268,0.9275,0.9278,0.9298,0.9288,0.9289,0.9294,0.9293,0.93,0.93,0.9301,0.9315,0.9317,0.9325,0.9311,0.935,0.9352,0.9352,0.9361,0.9363,0.9365,0,0,0,0,0,0.9256,0.927,0.9268,0.9271,0.9287,0.9298,0.93,0.93,0.9295,0.9301,0.9304,0.93,0.9323,0.9316,0.9319,0.9327,0.935,0.9351,0.9352,0.936,0.9363,0.9365,0,0,0,0,0,0,0.9264,0.9271,0.9269,0.9286,0.9291,0.9297,0.9305,0.9303,0.9311,0.9309,0.9309,0.9311,0.9324,0.9327,0.932,0.9343,0.9335,0.9337,0.934,0.9343,0.9345,0.9343,0.9312,0,0,0,0,0,0.9268,0.9277,0.9283,0.9296,0.93,0.9302,0.9307,0.9307,0.9313,0.9315,0.9319,0.9324,0.9333,0.9338,0.9346,0.9362,0.9362,0.9369,0.937,0.9372,0.9373,0.9381,0.9383,0.9357,0.9357,0.9357,0,0,0.9275,0.928,0.9286,0.9298,0.9303,0.9312,0.9304,0.9315,0.9321,0.9317,0.9329,0.9332,0.9338,0.9353,0.9359,0.9355,0.9381,0.9374,0.9375,0.9375,0.9382,0.9385,0.9387,0.9358,0.9358,0.9358,0,0,0.9294,0.9299,0.931,0.9315,0.9322,0.9323,0.9326,0.9332,0.9334,0.9347,0.9343,0.9351,0.9366,0.937,0.9374,0.9393,0.939,0.9396,0.9405,0.9413,0.9415,0.9416,0.9422,0.9424,0.9397,0.9397,0.9397,0,0.9302,0.9316,0.9316,0.9327,0.9332,0.9328,0.934,0.9344,0.9353,0.9356,0.9352,0.937,0.9374,0.9389,0.9393,0.9397,0.94,0.9395,0.9414,0.9416,0.9418,0.9423,0.9426,0.9398,0.9398,0.9398,0.9398,0,0.9325,0.9335,0.9344,0.9352,0.9358,0.9369,0.9371,0.9377,0.9376,0.9377,0.939,0.9395,0.9403,0.9407,0.9406,0.9421,0.9418,0.9414,0.9407,0.9421,0.9426,0.9428,0.9399,0.9399,0.9398,0.9398,0,0,0.9349,0.9357,0.936,0.9364,0.9371,0.9378,0.9389,0.9397,0.9402,0.9408,0.9416,0.9428,0.9424,0.9429,0.9429,0.9435,0.9449,0.943,0.943,0.9433,0.9465,0.9467,0.9469,0.9447,0.9447,0.9448,0.9464,0,0.9366,0.9385,0.9385,0.9402,0.941,0.9407,0.9416,0.9421,0.9423,0.943,0.9432,0.944,0.9435,0.9437,0.9444,0.9446,0.9455,0.9445,0.9454,0.9454,0.9451,0.9472,0.9475,0.949,0.9466,0.9466,0.9467,0,0.939,0.9397,0.9414,0.9419,0.9423,0.9431,0.9438,0.9445,0.9451,0.9451,0.9456,0.9455,0.9465,0.9457,0.947,0.9463,0.9467,0.9468,0.9469,0.9469,0.946,0.9472,0.9495,0.9496,0.947,0.947,0.9469,0,0.9404,0.9417,0.9429,0.9433,0.9439,0.9445,0.9448,0.9453,0.9458,0.9464,0.9467,0.9474,0.9478,0.9483,0.9483,0.9478,0.9496,0.9489,0.9496,0.9496,0.95,0.9499,0.9522,0.9504,0.9504,0.9504,0.9503,0,0.9423,0.9434,0.9435,0.9443,0.9454,0.9454,0.9465,0.9468,0.9472,0.9479,0.9477,0.9484,0.9484,0.9491,0.9491,0.9501,0.9503,0.9504,0.9504,0.9503,0.9503,0.9505,0.9504,0.9504,0.9504,0.9504,0.9504,0,0.944,0.9442,0.9455,0.946,0.9461,0.9469,0.9474,0.948,0.9482,0.9491,0.9493,0.9495,0.9503,0.9504,0.9513,0.9513,0.9525,0.9524,0.9523,0.9523,0.953,0.9529,0.9554,0.9557,0.9537,0.9537,0.9538,0,0.9452,0.946,0.9466,0.9471,0.9474,0.9482,0.9486,0.9487,0.9492,0.9498,0.9504,0.9511,0.9517,0.9529,0.9532,0.9538,0.9537,0.9545,0.9538,0.9537,0.9536,0.9535,0.9535,0.9547,0.9547,0.9547,0.9547,0,0.9472,0.9473,0.948,0.9487,0.9493,0.9498,0.9504,0.9507,0.9508,0.9514,0.9522,0.9526,0.9536,0.9543,0.9549,0.9552,0.9549,0.955,0.9551,0.9551,0.955,0.9549,0.9526,0.9549,0.9549,0.9549,0.9548,0.9548,0.9487,0.9493,0.9498,0.9506,0.951,0.9515,0.9521,0.9523,0.953,0.9537,0.9537,0.9545,0.955,0.9558,0.9561,0.9568,0.9565,0.9568,0.9568,0.9569,0.9569,0.9549,0.9569,0.9569,0.9569,0.9569,0.9569,0,0.9506,0.9509,0.9516,0.9523,0.9529,0.9527,0.9532,0.9537,0.9545,0.9549,0.9555,0.9564,0.957,0.9573,0.958,0.9584,0.9583,0.9586,0.9585,0.9585,0.9572,0.9569,0.9586,0.9586,0.9586,0.9586,0.9586,0.9586,0.9517,0.9527,0.9528,0.954,0.9543,0.9551,0.9555,0.9559,0.9562,0.9572,0.9578,0.958,0.9583,0.959,0.9596,0.9596,0.9598,0.9601,0.9601,0.9588,0.9586,0.9585,0.9582,0.9602,0.9602,0.9614,0.9615,0.9615]}]]